Theta_e
318 316 316 317 321 324 321 323 321 319 319 312 311 315 316 322 323 321 323 324 326 326 326 328 330 329 329 330 328 328 330 332 334 335 336 339 338 338 340 340 340 339 339 339 339 338 338 339 338 333 324 321 323 330 333 333 334 333 333 334 335 335 335 335 335 335 336 337 336 335 334 333 334 335 335 334 334 332 332 332 332 332 331 330 330 330 330 331 331 331 331 331 331 332 332 331 329
320 318 318 318 322 324 322 323 320 315 314 309 312 316 317 321 321 321 322 323 325 325 327 329 330 328 326 327 327 328 331 333 336 337 336 337 337 338 339 339 339 339 339 339 339 339 338 338 336 329 323 320 319 327 333 334 334 333 333 333 334 334 334 334 335 335 337 336 335 334 334 332 332 333 334 334 333 332 331 331 332 333 332 331 330 331 330 330 330 330 330 330 330 330 330 331 330
320 319 321 321 321 323 322 324 318 312 311 308 310 317 318 319 320 322 323 323 324 325 328 330 330 328 325 326 325 327 332 334 336 335 335 337 336 337 339 339 338 338 338 339 339 339 339 338 335 328 322 319 317 326 332 333 333 333 333 332 333 334 334 334 334 335 336 336 334 334 334 331 330 332 333 333 332 331 330 330 332 333 333 332 330 330 331 331 330 330 330 330 330 330 330 330 330
319 318 321 322 321 322 323 324 320 313 310 308 309 316 318 319 321 323 325 324 323 325 329 328 330 329 327 328 324 327 335 336 337 336 335 336 336 337 338 338 337 337 337 338 339 339 339 338 335 328 322 318 320 328 333 333 333 333 333 332 334 334 334 334 334 335 335 335 334 333 332 329 329 331 332 332 331 331 330 330 331 333 333 331 330 329 330 330 330 330 330 330 330 330 330 330 330
320 319 320 322 321 322 324 323 321 316 311 311 311 315 319 320 321 323 325 323 322 324 326 327 329 330 328 328 326 330 335 335 337 337 336 337 337 336 338 338 336 337 337 337 338 339 339 338 335 329 323 319 321 329 333 333 333 333 333 333 333 334 334 334 335 335 335 335 334 332 329 326 328 331 331 331 330 330 329 330 331 331 332 332 331 331 330 329 330 330 330 330 330 330 330 330 330
321 321 321 321 322 322 323 318 315 315 315 317 315 316 319 319 320 323 324 322 321 322 324 326 328 327 328 329 329 333 335 335 337 337 337 338 337 336 338 339 337 336 335 336 338 339 339 337 335 329 323 320 320 324 330 332 332 333 333 333 333 334 334 334 335 335 335 335 334 332 329 325 328 331 330 330 329 329 329 329 331 331 332 332 332 332 331 330 329 329 329 329 329 329 329 329 329
320 322 322 320 322 322 322 317 314 316 317 318 317 317 318 319 321 323 323 322 321 321 322 325 325 324 328 329 330 335 336 337 337 337 338 337 336 336 338 339 338 336 335 337 338 339 339 337 336 329 323 321 319 319 325 331 332 333 332 332 332 333 333 334 334 335 335 335 334 333 329 327 329 330 329 329 329 329 328 329 331 331 332 332 332 332 331 330 329 329 329 329 329 328 329 329 329
319 322 323 322 323 322 320 318 318 318 317 317 317 318 319 319 321 322 322 321 321 321 322 323 323 323 326 326 333 336 335 337 337 337 337 336 337 337 338 339 339 336 336 337 338 340 338 337 335 329 325 322 320 319 321 326 329 331 332 331 331 332 332 333 333 334 334 334 334 333 330 328 329 329 328 328 328 328 328 329 331 331 332 332 331 331 330 330 330 331 330 330 330 328 328 328 328
320 321 322 322 322 321 318 317 318 318 318 317 317 317 319 319 320 321 320 320 319 320 321 323 322 323 322 324 334 336 335 336 336 337 337 336 337 337 338 338 339 338 337 339 339 340 338 337 335 330 327 323 320 319 319 321 325 329 332 332 331 331 332 332 332 332 332 333 333 333 330 327 328 328 328 328 328 328 328 329 330 330 330 330 331 330 330 329 329 329 328 328 328 327 327 328 327
320 320 321 323 321 318 314 316 317 318 318 317 318 317 318 319 320 321 319 319 318 319 321 322 321 320 320 324 334 336 337 336 335 337 336 337 336 336 337 337 340 339 339 341 339 340 339 337 336 331 328 324 321 320 318 319 322 327 331 332 332 332 331 331 331 330 331 332 332 332 330 329 327 327 328 328 328 327 328 330 330 330 330 330 330 329 329 328 327 327 326 326 326 327 327 327 327
321 319 321 321 318 314 312 314 316 318 318 317 318 317 318 318 320 321 319 319 317 319 320 321 320 319 320 324 334 337 338 336 336 337 336 336 335 335 337 337 340 340 340 341 339 340 339 338 337 331 327 326 322 320 319 318 321 325 329 331 332 332 332 331 331 330 331 330 329 330 331 330 329 326 327 329 329 327 327 330 330 330 330 331 330 330 329 328 327 326 326 326 326 327 326 326 325
321 320 321 320 317 316 315 315 316 319 318 318 318 317 318 318 320 320 319 318 317 318 319 320 320 320 320 323 334 338 337 337 336 336 336 336 335 335 336 337 339 340 340 341 341 340 340 338 338 333 328 326 324 321 319 319 321 325 328 330 331 332 332 331 331 330 330 329 328 330 331 331 329 327 326 329 330 327 326 328 329 329 330 331 330 330 329 327 326 325 325 326 326 326 325 325 325
321 321 321 319 320 319 316 316 317 318 318 319 319 317 318 318 320 319 318 318 316 318 319 320 319 320 321 325 334 337 337 338 337 336 337 336 335 335 334 336 338 340 340 341 341 340 340 339 338 336 330 327 325 323 321 319 321 325 328 327 329 331 331 331 331 330 330 329 327 328 329 329 328 326 326 328 330 328 325 325 328 329 329 330 330 329 328 326 325 325 325 325 326 326 326 325 325
322 322 322 320 321 320 317 317 317 315 316 319 319 317 318 318 319 319 318 317 317 317 318 320 320 320 320 324 329 333 337 338 337 337 337 336 336 335 334 336 338 339 339 340 340 340 340 339 339 338 333 330 327 325 323 320 321 322 323 322 324 327 328 330 330 329 329 329 327 327 327 327 327 325 326 328 329 328 326 324 326 328 329 329 329 328 326 325 323 323 324 325 325 326 326 326 325
323 321 323 322 320 318 317 318 317 314 316 319 318 317 317 317 317 318 318 316 317 317 317 320 321 322 319 322 327 331 338 337 337 337 337 337 336 335 334 336 337 339 339 339 339 339 340 339 339 338 336 335 332 330 329 324 321 321 320 319 319 319 323 326 326 325 326 327 327 327 326 325 325 323 323 327 328 328 327 325 324 326 328 328 329 327 325 324 323 323 323 323 324 324 325 325 325
323 322 322 321 318 316 316 319 318 315 317 319 317 317 317 316 316 316 315 315 317 316 317 320 321 321 319 324 332 337 338 337 337 337 337 337 336 335 335 335 337 338 338 339 339 339 339 339 339 339 338 337 336 334 334 330 323 321 319 317 318 317 318 322 323 323 323 324 324 324 324 324 323 322 322 325 327 327 328 327 324 324 326 326 326 326 325 325 323 322 322 321 321 321 322 323 324
321 322 322 319 317 316 316 318 316 315 318 318 316 317 318 316 315 314 314 314 316 316 317 320 320 321 321 325 334 340 338 336 337 337 337 337 336 336 335 335 336 337 338 339 339 339 339 339 339 339 338 337 336 334 335 334 328 323 321 319 317 317 317 318 320 321 321 321 321 322 325 327 326 325 324 323 325 326 327 326 326 325 324 323 323 325 325 325 323 322 321 321 320 320 321 322 323
321 322 321 317 318 317 317 318 316 317 318 317 317 317 317 317 315 314 314 314 316 316 317 319 319 322 325 326 333 338 337 337 337 337 337 336 336 336 335 335 335 336 337 338 339 339 339 339 339 339 338 337 337 334 334 336 332 327 327 324 320 320 317 316 320 321 322 322 320 324 328 329 328 328 326 323 324 325 325 324 324 325 325 323 321 323 325 324 323 321 320 321 320 320 322 323 322
321 322 321 319 320 318 317 318 316 317 317 317 317 317 318 316 316 315 315 315 315 315 316 317 318 322 325 328 334 337 336 337 337 336 336 337 337 336 335 335 336 335 336 337 338 339 338 338 338 338 338 337 336 334 334 335 334 332 333 331 327 327 321 318 325 325 326 327 324 327 330 327 328 329 325 324 324 322 321 321 321 322 323 321 319 321 322 322 320 319 320 320 320 321 324 325 324
321 322 322 321 320 317 317 316 316 316 316 316 316 317 317 316 316 315 316 316 315 315 317 316 318 322 324 330 336 336 336 337 337 337 336 336 337 336 336 336 336 335 335 336 336 338 338 338 338 338 337 337 336 335 333 333 334 333 334 333 330 331 327 324 329 328 329 330 327 329 330 325 326 328 319 317 321 320 318 316 316 318 318 318 317 320 321 319 318 319 319 319 321 323 325 325 324
319 320 320 320 318 317 316 315 314 314 315 316 316 316 316 315 315 315 316 316 315 316 317 316 316 320 324 329 335 336 337 337 337 338 337 337 337 336 336 336 336 336 335 335 336 337 337 337 338 338 338 337 336 335 334 332 333 333 334 333 331 332 330 329 331 329 329 327 324 329 330 323 323 327 318 315 323 325 321 316 315 319 321 319 318 323 324 320 320 321 318 319 323 325 325 325 324
318 317 317 317 317 317 315 313 313 312 314 316 316 315 315 315 315 315 315 316 315 315 316 316 316 319 324 328 335 337 337 338 337 338 337 337 337 337 337 337 337 336 335 335 335 336 337 337 337 338 337 337 336 335 334 333 332 333 333 333 332 332 331 331 331 330 329 324 322 328 329 322 323 327 323 322 326 327 326 324 323 325 326 323 319 324 326 322 322 323 322 322 324 324 324 324 324
318 317 316 316 316 316 314 313 311 311 314 316 316 315 315 315 315 316 315 316 315 313 314 314 314 320 326 329 334 336 337 338 337 337 338 337 337 337 338 337 337 336 336 335 335 336 336 337 337 337 338 337 336 335 334 333 332 333 333 333 332 332 331 331 331 331 330 327 324 327 327 325 326 327 326 325 326 326 327 326 326 326 326 325 322 324 325 322 323 324 324 324 323 322 322 322 322
318 317 315 315 314 314 313 312 310 311 314 314 314 314 315 315 315 314 314 315 314 312 314 313 313 321 327 328 332 334 336 338 337 337 337 337 337 337 338 337 337 336 336 335 335 335 336 336 337 337 337 337 336 335 334 334 333 333 332 333 332 332 331 330 331 331 331 329 326 325 326 327 327 327 327 325 324 325 326 326 326 326 325 325 324 324 323 321 322 323 323 322 321 321 320 319 320
318 317 316 314 314 313 311 311 310 312 313 312 313 314 315 314 313 313 314 315 313 312 315 315 316 321 325 326 328 331 334 336 336 337 337 337 337 337 337 337 336 336 335 335 335 335 336 336 336 337 337 337 337 336 335 334 334 333 332 333 332 332 331 330 331 330 331 330 328 326 325 327 327 327 327 326 325 325 326 325 325 325 324 324 322 322 322 321 321 322 321 321 320 321 321 320 320
317 317 315 315 313 312 311 312 311 312 312 312 314 315 314 312 311 314 314 314 311 312 315 316 318 320 322 325 327 329 332 335 336 337 337 337 338 337 336 336 336 335 335 335 335 335 336 336 336 337 337 337 336 336 335 335 334 334 333 333 333 332 331 330 330 330 330 330 329 328 326 326 327 328 327 327 326 325 326 325 323 324 324 324 321 320 321 320 320 321 321 321 321 321 321 321 320
317 316 315 315 313 313 312 313 312 313 313 312 314 315 314 312 312 314 314 312 311 313 316 317 318 319 321 323 327 330 332 334 336 337 337 337 337 336 336 336 335 335 335 335 335 335 335 336 336 336 337 336 336 336 335 335 334 334 334 334 333 333 332 331 330 330 330 329 329 329 327 326 327 328 327 327 327 326 326 325 324 324 324 324 321 319 319 317 318 320 319 319 320 320 320 321 319
316 315 315 314 314 313 313 314 313 314 314 312 314 315 314 312 313 315 313 310 311 313 316 317 318 319 321 322 326 330 331 333 335 336 336 336 336 336 336 336 336 336 336 335 335 335 335 336 336 336 336 336 336 336 336 335 335 334 334 334 334 333 332 331 331 330 330 330 329 329 329 328 327 327 328 328 327 326 326 326 325 325 324 324 321 318 317 313 312 314 314 313 315 317 319 320 319
315 315 315 314 314 315 314 314 313 314 314 312 313 313 313 314 313 314 312 310 312 313 315 317 317 319 322 324 326 328 330 332 334 335 336 336 336 335 335 335 335 336 336 336 335 335 335 335 335 336 336 336 336 336 336 336 335 335 334 334 334 334 333 332 331 331 330 330 329 329 329 328 328 328 328 328 327 326 327 327 326 325 325 324 322 319 317 314 311 310 310 309 309 311 313 316 316
315 315 316 315 315 315 314 314 313 314 313 311 312 310 312 316 315 313 311 311 312 312 314 316 317 318 320 323 325 327 330 332 334 334 335 335 335 335 335 335 335 336 336 336 336 335 335 335 335 336 336 336 336 336 336 336 336 336 335 334 334 334 334 333 332 332 331 330 330 329 329 328 328 328 328 328 327 327 327 327 326 326 325 324 323 322 321 318 314 312 311 311 310 309 310 312 315
315 315 315 315 313 313 314 314 313 315 312 311 313 310 311 315 314 312 311 311 312 313 314 314 316 317 318 321 323 325 328 331 332 332 334 334 335 335 335 335 335 335 335 335 336 335 335 335 334 335 335 335 336 336 336 335 335 335 335 335 334 334 334 333 333 332 331 331 330 329 329 328 328 328 327 327 328 327 327 327 326 326 325 325 324 323 323 320 318 316 314 314 314 312 312 314 316
315 313 312 315 313 313 315 314 313 315 313 312 313 310 312 315 313 311 311 311 312 313 314 314 314 315 316 318 320 322 325 329 330 330 332 333 334 335 335 335 335 335 335 335 335 335 335 335 334 334 334 334 335 335 335 335 335 335 335 335 334 334 333 333 333 333 332 332 331 329 328 328 328 327 327 327 327 327 326 326 326 326 325 325 325 325 324 322 320 319 318 317 318 316 315 316 317
315 313 311 314 313 313 314 313 313 315 314 313 312 312 314 315 313 312 311 312 313 313 313 314 314 314 314 315 316 318 319 324 328 329 330 332 334 334 335 335 335 335 335 335 336 335 336 335 334 334 334 334 333 334 334 335 335 335 335 335 335 334 333 333 333 333 333 332 331 330 329 328 328 327 327 327 327 327 327 326 326 326 325 326 326 325 325 324 322 321 321 321 321 320 317 317 318
313 313 313 315 314 312 313 313 314 314 314 314 313 313 314 315 315 313 312 313 313 313 314 314 314 315 315 315 315 315 316 318 322 326 328 330 333 333 334 334 334 335 335 335 336 336 336 335 335 334 334 334 333 333 333 333 334 334 334 334 334 334 333 333 333 333 333 333 332 331 330 330 329 328 327 327 328 328 328 328 328 327 327 328 328 326 325 325 323 322 323 323 324 322 319 318 318
312 312 313 314 313 312 312 313 314 313 314 314 314 314 314 315 315 314 314 313 313 314 314 314 315 315 315 316 315 315 315 315 317 319 322 326 329 331 332 332 332 334 334 335 335 335 335 335 335 335 334 333 333 333 332 333 333 333 334 333 333 334 333 333 333 333 332 332 332 331 331 330 329 329 328 328 328 328 328 328 328 328 328 328 328 328 327 325 325 325 325 324 323 321 319 318 318
314 313 313 313 312 312 313 314 312 313 314 314 314 314 314 314 314 315 315 314 314 314 314 315 316 315 315 316 316 317 317 316 317 317 316 318 321 323 326 328 330 331 332 333 334 335 335 335 335 335 334 333 333 332 332 332 332 332 333 333 333 333 333 333 333 333 333 333 332 332 331 330 330 330 329 329 327 327 328 328 329 329 328 327 327 328 328 327 327 327 326 324 322 320 319 319 318
316 315 313 313 312 311 313 314 312 312 314 314 314 314 315 315 314 315 315 315 315 315 315 315 316 316 316 317 317 318 317 318 319 315 314 314 313 314 315 319 324 328 329 330 332 333 333 334 334 334 334 333 332 332 332 332 331 332 332 332 332 332 332 333 333 333 333 333 333 333 332 331 331 330 329 328 327 327 328 328 329 329 328 327 326 327 327 326 326 327 326 324 323 320 319 320 319
316 314 312 312 312 312 313 314 312 311 313 314 315 315 315 315 315 315 315 316 316 315 315 316 316 317 317 318 318 318 318 318 317 315 314 313 312 312 310 311 315 321 325 328 329 331 332 333 333 334 334 333 332 332 332 332 331 331 331 331 331 331 332 332 333 333 333 333 332 333 332 331 330 329 329 330 330 330 329 329 329 328 327 327 327 327 327 326 325 326 325 323 323 321 321 320 318
314 314 312 311 312 313 313 313 312 311 311 313 316 315 315 315 315 316 316 316 317 316 315 315 316 316 316 316 317 317 317 317 316 315 314 313 313 312 310 310 311 314 319 324 326 328 330 331 332 333 333 332 332 332 332 332 332 331 331 331 331 331 331 332 332 332 333 333 332 332 331 330 329 330 330 330 329 329 329 329 329 328 328 328 327 327 327 327 325 325 325 324 322 321 321 320 318
314 314 311 311 314 312 311 312 313 312 311 312 315 314 315 315 315 316 314 313 314 313 312 312 312 313 314 315 316 315 315 316 316 315 313 313 313 313 311 311 311 312 315 320 324 326 328 329 330 332 332 332 331 331 331 331 331 331 331 331 331 331 332 332 332 332 332 332 332 332 331 331 330 330 331 330 329 329 329 329 329 329 329 329 328 327 327 326 326 325 324 323 322 320 319 320 319
316 317 313 313 315 313 313 314 313 312 311 312 314 312 312 314 314 315 313 310 311 311 311 313 313 313 314 315 316 316 315 316 315 314 314 314 314 314 313 312 311 310 312 315 319 322 325 327 329 329 330 331 331 330 329 329 330 330 331 331 331 331 331 331 331 331 331 331 331 330 330 330 331 330 330 330 331 331 330 330 330 329 329 328 327 326 326 325 326 325 323 323 322 320 320 320 319
313 317 316 314 313 314 315 315 313 312 312 313 313 308 308 313 315 314 313 311 312 313 313 315 315 315 315 316 317 317 317 316 314 314 316 317 316 316 315 313 311 310 311 312 314 317 320 323 325 327 328 329 329 329 328 327 328 329 330 330 330 330 329 329 329 329 329 329 329 329 329 329 330 330 330 330 331 331 330 330 329 329 328 328 327 326 325 325 325 325 324 324 322 322 321 319 319
310 315 315 313 314 315 315 315 314 312 311 312 312 309 308 311 313 314 313 312 313 314 315 315 315 315 316 316 316 317 317 317 316 316 316 317 317 316 316 314 313 313 311 309 309 312 316 319 322 324 325 326 327 328 327 326 326 327 328 329 328 328 328 328 328 328 328 328 328 328 328 328 328 329 329 329 330 329 329 329 329 329 328 328 327 327 326 326 325 325 325 325 324 324 322 319 319
314 316 315 312 314 316 316 316 314 314 313 312 313 314 310 309 311 313 313 312 314 315 315 315 315 315 315 316 316 316 316 316 317 317 316 316 316 316 315 314 313 312 310 309 308 309 312 317 320 321 323 324 325 325 325 325 325 326 326 327 327 327 327 327 327 327 328 327 327 327 327 328 327 327 327 327 327 327 328 328 329 328 328 328 328 328 328 327 326 326 325 324 323 323 322 320 320
315 316 316 315 316 316 317 316 314 315 314 311 314 315 310 308 311 312 312 312 313 315 315 316 315 315 315 315 315 315 315 315 316 316 316 316 315 314 314 313 313 312 312 312 311 311 312 315 318 320 322 323 323 323 324 324 325 325 326 326 326 326 326 326 326 326 327 327 326 326 325 326 326 326 325 326 326 326 326 326 327 327 327 328 329 328 328 328 327 325 325 324 323 322 322 321 321
313 314 316 318 318 318 318 316 314 315 312 311 315 314 310 308 310 312 311 311 313 315 315 315 315 315 315 315 315 315 315 315 314 314 315 315 314 313 313 313 313 313 313 314 313 313 315 318 320 321 322 323 323 323 323 324 324 324 325 325 325 325 325 325 325 325 325 324 324 324 324 324 324 324 324 324 324 324 325 325 326 326 326 327 327 327 327 327 327 326 326 325 325 324 322 321 320
313 316 316 316 316 316 316 314 313 312 312 313 313 313 311 308 308 312 312 310 313 316 315 314 314 314 314 314 315 314 314 315 314 314 314 314 314 314 314 314 314 314 316 317 317 316 317 318 320 320 320 321 322 322 323 323 323 324 324 325 325 325 325 324 324 324 323 323 323 322 322 322 323 323 322 322 322 322 322 323 323 323 324 324 324 325 325 325 326 326 326 325 325 324 322 321 320
316 318 316 315 315 314 313 313 313 312 312 311 310 311 312 309 308 312 312 310 313 315 314 315 315 315 314 314 314 314 314 314 315 315 315 315 315 314 314 314 314 315 316 317 319 319 319 319 319 319 319 320 321 321 322 322 322 323 323 323 323 324 323 323 323 322 322 322 322 321 321 321 321 320 320 320 320 320 320 320 321 321 322 322 322 323 323 323 324 324 324 324 324 324 323 322 320
317 316 313 313 314 314 314 313 313 312 311 309 309 311 312 310 309 311 311 311 313 315 315 315 315 315 315 314 313 313 314 314 315 315 315 315 316 315 315 315 314 314 314 315 317 319 319 319 319 319 319 320 321 321 321 321 321 322 322 322 322 322 321 321 321 320 320 320 319 319 319 319 319 319 319 319 319 319 319 319 319 319 319 320 320 320 321 321 321 322 322 322 323 323 323 323 322
315 315 312 312 313 314 315 314 312 312 310 308 309 312 311 310 310 312 312 312 312 313 314 315 315 315 314 314 313 313 313 314 314 314 314 314 315 315 315 314 314 313 313 313 314 315 315 315 315 315 316 316 317 317 318 318 318 318 318 318 317 317 316 316 316 316 316 316 317 317 317 317 318 318 318 318 318 318 317 317 317 317 317 317 317 318 318 318 319 319 320 320 320 321 322 322 322
316 317 314 312 313 313 313 313 313 313 312 309 309 311 310 309 310 311 311 311 310 310 311 312 313 313 313 313 313 313 313 313 313 313 313 313 313 313 313 313 313 313 313 313 313 313 313 313 312 311 311 312 312 312 313 313 312 312 312 312 311 312 312 312 313 313 312 313 313 314 314 315 316 316 316 316 315 313 313 313 314 314 315 316 316 316 316 316 317 317 317 318 318 319 319 320 320
315 317 316 313 313 312 311 311 312 312 312 311 310 310 311 311 311 309 310 310 309 309 310 311 311 312 312 312 313 312 312 312 312 312 311 312 312 312 312 312 311 311 311 311 312 312 312 311 310 310 309 309 309 310 310 310 309 309 309 309 309 309 309 310 312 311 310 310 310 310 311 312 312 312 312 311 310 309 308 309 310 310 311 313 314 314 315 315 315 315 315 316 316 317 317 317 318
314 314 314 312 312 313 311 309 309 309 311 312 311 311 311 311 311 310 310 310 309 309 310 311 311 312 313 314 314 313 313 312 312 312 311 311 311 311 311 310 310 310 309 309 309 309 310 309 308 308 308 308 308 308 308 308 308 308 308 308 308 308 308 308 309 309 308 308 308 308 308 308 308 308 308 308 307 307 307 307 307 308 308 309 310 311 312 313 313 313 314 314 314 315 315 315 316
314 314 314 310 311 312 310 310 310 309 310 310 311 310 309 309 310 311 310 310 309 309 311 312 312 312 313 314 314 313 313 311 310 310 310 310 310 309 309 309 308 308 307 307 307 307 308 308 307 307 307 307 307 307 307 308 308 308 308 308 308 308 308 308 308 308 307 307 307 306 306 306 306 306 306 306 306 306 307 306 306 306 306 306 307 308 309 309 311 312 312 312 312 312 313 313 313
312 313 314 312 312 312 309 310 312 311 311 310 309 309 308 309 310 311 311 311 310 309 311 312 312 313 314 314 314 312 311 311 310 310 310 310 309 309 308 308 307 307 307 306 306 306 306 306 307 307 307 307 307 307 307 307 308 308 307 307 307 307 307 307 307 307 307 306 306 306 306 306 306 306 305 305 306 306 306 306 306 306 305 305 306 306 306 307 308 309 309 310 309 310 310 310 310
310 311 312 313 314 312 310 311 310 310 311 310 310 309 309 311 312 312 311 311 311 310 311 312 312 313 314 314 313 312 312 312 311 310 310 309 309 308 307 307 307 306 306 306 305 305 305 306 306 306 306 307 307 307 307 307 307 307 307 307 307 307 307 307 307 306 306 306 306 305 306 305 305 305 305 305 305 305 305 305 305 305 305 305 305 304 304 305 305 306 307 307 307 307 307 307 307
311 311 311 312 313 311 311 312 310 310 310 310 311 310 308 310 312 312 313 313 312 311 311 313 313 313 314 313 313 313 312 312 311 310 309 309 308 307 306 306 306 306 306 305 305 305 305 305 305 305 306 306 306 306 307 306 306 306 306 306 306 306 306 306 305 306 306 305 305 305 305 305 305 304 304 304 304 304 304 304 304 304 304 304 304 304 303 303 303 304 304 305 305 304 304 305 305
313 313 313 313 312 312 313 313 311 309 309 309 310 310 309 309 310 311 312 312 313 312 312 313 314 313 314 313 313 313 312 311 311 309 309 308 308 307 306 306 306 306 306 305 305 304 304 304 304 304 305 305 306 306 306 306 305 305 305 305 305 305 305 305 305 305 305 305 305 305 305 305 304 304 304 304 304 304 303 303 303 303 303 303 303 302 302 302 302 302 302 302 302 302 302 303 303
Wind_Speed
10 8 6 6 4 6 5 3 2 2 3 1 3 2 4 4 3 5 6 5 4 5 4 2 3 3 2 5 4 7 11 9 6 3 3 5 11 13 11 15 17 16 15 14 12 11 11 11 9 7 7 7 8 10 12 11 10 11 11 11 8 7 8 9 9 8 9 12 13 13 12 12 13 13 12 13 13 13 14 14 13 14 16 15 15 15 14 14 15 14 14 14 13 13 13 12 12
6 6 5 4 4 6 2 1 3 3 3 3 3 1 6 5 4 5 6 5 5 6 4 3 4 2 3 4 3 3 8 9 8 6 7 10 14 12 12 16 17 16 15 13 12 11 10 10 9 7 8 7 8 11 13 12 11 11 10 10 8 7 8 8 8 9 10 12 12 12 12 12 12 13 12 13 13 14 14 13 12 14 15 15 15 14 14 14 14 13 14 13 12 12 12 12 11
4 4 2 3 4 4 1 3 4 2 3 4 4 4 6 5 5 5 7 8 8 6 4 4 3 1 4 3 1 3 5 6 9 9 8 13 13 11 14 16 16 16 14 13 11 11 10 9 8 7 8 8 10 12 13 13 12 11 9 10 9 6 7 8 7 8 10 11 12 12 12 11 12 13 13 13 13 13 13 12 13 13 14 15 15 14 14 14 14 14 13 13 13 13 12 12 11
5 4 2 5 3 2 3 4 3 3 2 3 4 5 5 5 6 8 10 9 7 5 4 4 3 2 5 4 4 3 6 6 8 9 8 10 12 14 16 16 16 15 13 12 11 11 11 9 8 8 7 8 10 12 13 12 10 11 10 11 10 6 8 9 7 8 10 11 12 11 11 11 11 13 13 13 13 13 13 13 12 12 13 14 14 14 14 14 14 13 13 13 13 13 12 12 11
4 3 3 5 4 1 3 2 3 4 1 2 4 7 5 4 8 9 9 7 6 3 2 4 2 3 1 4 5 2 6 6 7 9 9 9 13 17 16 16 15 13 12 11 11 10 10 10 8 8 7 8 10 12 13 12 11 12 11 10 10 8 9 10 8 8 10 10 10 10 11 11 12 13 13 13 13 13 13 12 12 12 12 13 13 14 13 13 13 12 13 13 13 13 12 12 11
1 1 1 3 2 1 3 3 3 2 4 4 3 7 6 5 8 9 9 7 5 2 1 3 1 1 2 2 3 5 4 5 8 8 9 11 15 17 15 15 13 12 12 11 11 10 10 10 8 7 7 8 10 10 11 12 12 12 11 11 10 10 10 9 8 8 8 10 10 10 11 12 13 14 13 13 13 13 13 12 12 12 12 12 12 12 12 12 12 12 12 12 12 12 12 11 11
1 1 2 2 1 1 5 3 2 2 5 5 4 5 6 7 8 9 9 6 4 3 1 1 1 3 1 4 2 6 5 4 7 8 10 13 16 16 15 13 12 12 12 11 10 10 11 10 9 7 7 9 10 10 10 12 12 11 11 12 11 10 9 9 8 8 8 9 10 11 12 13 14 13 13 13 11 12 12 12 12 12 12 11 11 12 12 12 12 12 12 11 11 11 11 11 10
1 2 1 2 3 2 5 3 0 2 4 3 3 3 5 8 7 8 8 5 4 4 4 3 1 4 2 2 1 6 5 5 7 11 13 15 17 16 15 12 12 13 12 12 9 10 12 11 10 8 7 8 10 10 10 11 12 12 11 10 10 9 9 9 8 8 8 8 9 11 12 13 13 12 13 12 10 11 12 12 12 11 11 11 11 12 12 12 12 12 11 11 10 10 10 10 9
2 3 1 3 4 3 4 2 1 3 4 4 4 3 3 6 7 7 7 4 4 5 4 4 2 2 3 2 3 6 6 6 8 12 13 15 17 16 14 12 13 13 13 11 9 10 12 11 10 8 8 8 9 9 9 10 11 13 12 9 9 9 9 9 8 7 7 7 8 11 12 12 13 12 12 10 10 11 11 11 11 11 10 10 10 10 11 11 10 10 9 9 9 9 9 9 8
3 3 2 3 3 3 4 3 2 3 5 4 4 5 4 6 5 5 6 5 5 5 5 4 2 2 2 2 5 5 7 7 9 12 13 15 16 16 14 12 12 13 13 11 10 11 11 10 10 8 7 7 9 9 9 10 11 12 12 10 9 9 9 9 8 7 7 7 7 8 10 11 12 12 11 10 9 10 11 11 10 10 10 8 8 9 10 10 9 9 8 8 9 9 8 8 7
4 2 2 3 4 4 4 3 3 4 5 4 5 5 5 6 5 5 6 6 5 4 5 4 3 2 2 2 4 6 10 9 12 13 14 15 16 15 14 13 11 12 12 11 11 11 11 10 9 8 7 7 8 8 9 10 10 10 11 10 9 9 9 8 7 7 8 7 7 7 9 10 10 11 11 10 9 8 9 10 10 10 9 8 8 9 9 9 8 8 8 9 9 8 7 6 6
4 4 3 4 5 3 1 2 5 5 5 5 6 6 4 6 6 6 6 6 6 4 6 6 1 1 3 3 4 9 12 10 13 14 14 14 14 14 13 13 11 12 12 11 12 11 11 10 9 8 7 7 7 7 7 9 10 10 9 9 10 9 9 9 8 8 7 6 7 8 9 9 8 9 11 10 9 6 7 9 10 10 9 8 9 9 8 8 7 7 8 8 8 7 6 5 5
4 4 5 4 2 1 0 2 5 5 5 5 6 7 5 7 6 6 6 5 6 4 5 5 2 1 2 4 6 9 10 10 13 14 14 13 13 13 13 13 11 12 11 11 12 11 11 10 10 8 7 7 7 8 7 7 9 9 8 8 10 9 9 11 10 9 8 5 6 7 7 7 6 7 10 10 8 6 6 8 10 10 9 8 8 8 8 7 7 7 8 8 7 7 6 5 5
3 2 4 3 0 2 1 2 5 4 5 6 6 8 7 5 2 3 5 6 5 3 5 4 2 3 2 4 6 7 10 13 14 14 14 12 13 12 12 12 11 11 11 11 12 11 11 10 10 9 8 7 7 7 7 6 7 8 7 7 8 9 9 10 10 8 7 6 6 6 5 5 4 6 9 10 8 7 5 6 9 10 8 8 8 7 6 5 6 7 7 7 6 6 6 5 4
2 2 3 3 2 3 2 1 4 5 5 8 7 9 7 2 1 2 2 2 4 6 5 3 0 1 0 1 3 7 15 17 15 15 13 11 12 12 12 12 12 11 10 11 11 11 12 11 11 10 9 9 8 7 6 6 6 7 7 6 7 7 8 9 8 7 7 6 5 4 3 3 4 5 8 9 8 8 6 6 7 8 8 7 7 5 4 5 6 7 7 6 6 6 5 5 4
2 2 3 4 4 5 4 2 4 4 5 9 7 9 8 4 1 2 3 4 4 5 3 3 2 1 3 4 6 11 20 19 16 16 13 11 11 11 11 12 12 11 11 10 11 11 12 12 11 10 10 10 9 8 7 6 6 7 7 6 6 6 7 8 7 6 6 5 4 3 2 3 4 5 7 8 8 8 7 6 5 6 6 5 5 4 4 5 6 7 7 7 6 6 5 4 4
2 3 4 4 5 5 5 5 4 3 7 9 8 9 8 6 3 1 2 4 2 5 3 4 4 1 5 5 6 13 21 19 17 17 15 13 12 12 11 12 12 12 12 11 11 11 11 11 11 10 11 11 9 8 8 6 7 7 7 7 6 6 6 6 6 5 4 5 4 3 4 5 5 5 6 6 8 8 7 6 4 4 4 3 4 5 5 4 5 6 6 6 7 6 6 5 3
4 4 4 5 5 4 4 4 2 3 8 9 9 10 7 7 7 3 3 4 2 5 5 5 5 5 7 8 6 12 19 18 18 18 16 15 13 13 12 12 13 12 13 12 12 12 11 11 11 10 10 11 9 8 9 7 7 7 6 6 6 6 6 6 5 5 4 4 3 4 4 5 4 5 5 5 6 8 8 7 5 4 3 3 3 5 5 4 4 5 5 5 6 6 6 4 2
5 4 5 4 3 3 4 5 5 3 7 10 9 9 5 5 9 6 5 6 6 5 6 6 6 8 9 10 11 13 17 18 18 18 18 17 15 14 14 13 13 13 13 14 14 13 13 12 11 11 10 11 10 9 9 7 6 7 7 6 5 5 6 6 5 5 5 4 4 4 4 4 4 4 5 5 6 7 7 7 5 4 3 3 3 3 4 4 3 4 4 4 5 5 6 3 1
3 3 5 2 5 6 5 5 6 6 4 10 10 7 4 4 7 6 5 6 7 6 6 8 8 10 10 12 14 15 16 17 17 18 18 18 16 15 14 14 15 15 14 14 14 14 14 13 12 12 11 11 11 9 9 8 8 8 8 7 6 6 6 6 6 6 6 6 6 5 4 4 5 4 4 5 5 4 4 6 5 3 3 3 4 2 2 2 2 2 3 3 4 3 2 1 1
2 2 2 4 4 4 5 5 5 5 3 5 9 8 6 4 4 5 5 5 6 6 6 6 6 11 13 13 16 16 16 18 17 17 18 18 17 15 14 14 14 14 14 13 13 14 15 14 13 13 12 12 12 11 10 9 9 9 9 8 7 7 7 6 7 7 7 8 7 5 5 6 5 4 4 5 5 4 3 4 4 2 2 3 3 3 2 2 1 1 0 2 1 1 2 2 1
4 2 3 5 2 2 4 4 4 3 2 4 9 7 6 5 4 6 7 5 2 1 3 4 2 6 14 15 15 16 16 17 18 18 18 18 17 16 14 13 13 13 13 13 13 14 15 14 14 13 13 13 13 13 11 10 11 10 10 9 9 8 8 7 7 7 7 8 7 7 6 6 6 5 5 5 6 6 5 4 4 4 4 4 3 4 4 3 2 3 2 1 2 3 3 2 2
4 4 3 4 3 3 4 3 3 1 1 6 7 4 5 6 6 4 7 5 5 7 8 8 6 5 12 16 15 15 15 16 18 20 19 19 18 17 14 13 13 13 13 14 14 14 15 15 15 14 14 14 14 13 12 11 12 11 11 11 10 9 9 8 8 7 7 8 9 8 7 6 6 6 6 7 7 7 6 6 5 5 6 5 4 4 5 5 4 3 4 4 4 4 4 4 3
4 5 6 4 4 3 3 3 2 1 2 4 3 3 4 7 4 2 6 5 6 6 6 7 4 4 9 14 14 15 16 17 18 19 19 18 18 17 15 13 13 13 13 14 14 14 15 16 16 15 15 15 14 13 13 12 12 12 12 12 12 11 10 9 9 8 7 8 10 9 7 7 7 7 7 7 7 7 7 6 6 6 6 5 5 5 5 6 5 5 5 5 6 5 5 5 4
5 6 8 4 4 4 4 3 4 2 2 3 2 4 3 1 0 0 6 4 6 4 3 3 3 4 7 10 12 13 14 16 17 17 17 16 16 17 16 14 13 13 13 14 15 14 15 16 17 16 16 15 14 14 14 13 13 13 12 12 12 12 11 10 9 9 8 8 9 10 10 8 7 7 7 7 7 7 7 7 7 6 6 6 6 6 6 6 5 6 6 5 6 4 5 5 5
4 8 9 7 6 5 4 4 4 3 3 3 5 5 3 2 1 4 5 4 5 3 2 2 2 4 6 8 10 11 12 14 16 16 17 16 15 17 18 16 15 15 15 15 15 15 15 16 17 18 17 16 15 15 15 14 14 13 13 12 12 12 12 11 10 10 9 8 8 11 13 10 7 7 8 7 7 7 7 8 7 7 7 7 7 7 6 6 6 6 6 6 5 5 5 5 6
8 10 9 8 7 5 3 4 5 3 4 3 4 4 3 3 2 4 3 5 3 4 4 3 4 5 6 7 8 9 11 13 15 15 16 16 15 16 17 18 17 16 15 16 16 16 15 16 17 17 18 17 17 16 15 15 14 14 13 13 13 13 12 11 11 11 11 10 9 10 12 13 10 8 8 8 8 8 8 8 8 8 7 8 8 8 7 8 7 7 7 7 6 6 6 6 8
11 12 10 8 6 6 3 5 5 3 4 1 3 3 4 4 3 3 6 4 1 3 5 5 5 6 6 7 7 7 9 11 13 14 16 17 15 16 17 18 19 17 16 16 17 16 16 17 17 17 18 18 17 16 15 14 15 14 14 13 13 13 12 12 12 12 12 11 11 11 11 13 13 10 9 9 9 8 8 8 8 8 8 8 9 9 10 10 9 9 10 10 9 9 8 8 10
12 11 9 8 6 6 4 4 4 3 3 1 2 3 6 8 7 4 7 4 2 2 4 5 6 6 5 6 6 6 8 10 12 14 15 16 15 16 17 18 19 17 16 16 16 17 17 17 18 18 18 18 17 17 15 14 14 14 13 13 13 13 12 12 12 12 12 12 12 12 11 11 13 12 10 11 13 10 9 9 9 10 9 8 10 11 12 12 11 12 13 13 12 13 12 11 13
10 8 6 7 6 6 5 4 3 3 2 1 3 3 5 10 8 7 7 3 3 4 4 5 6 6 6 6 6 6 8 10 12 14 14 15 15 15 16 17 18 18 15 15 17 18 18 17 18 19 19 19 18 17 16 14 13 13 13 12 12 12 11 12 12 12 12 12 12 13 12 11 12 12 11 11 14 13 10 10 10 11 10 10 12 14 13 12 13 13 13 14 14 14 15 15 15
7 6 4 6 6 6 7 5 5 5 3 2 5 4 2 7 8 6 4 4 4 5 5 6 5 5 6 6 6 6 8 11 12 13 13 14 14 13 14 15 17 18 16 16 18 18 18 18 18 19 20 20 19 18 18 17 15 14 13 13 13 13 12 12 13 12 12 12 12 13 12 12 12 13 12 11 12 13 11 11 11 11 11 12 15 16 14 13 13 14 13 13 12 14 16 15 14
6 5 5 7 5 5 7 4 3 3 3 5 5 5 4 6 8 5 3 4 5 5 5 5 5 6 6 6 7 7 7 11 12 13 13 14 14 12 13 15 16 18 17 16 17 18 18 18 18 18 18 19 20 18 17 16 16 15 14 14 14 14 15 14 14 14 13 13 13 13 12 12 12 12 12 12 12 12 12 11 11 10 12 16 18 17 17 15 15 16 15 15 14 14 14 14 14
5 5 5 7 8 6 6 4 2 1 3 7 7 5 3 5 7 5 4 4 4 5 6 6 6 6 6 6 6 6 7 9 10 12 14 14 14 13 13 14 16 17 17 16 16 17 18 18 18 18 17 17 19 19 17 16 15 15 15 16 17 17 18 17 15 16 15 15 15 15 14 14 14 13 12 12 12 13 14 13 12 12 16 19 20 20 20 18 17 17 18 18 19 17 15 14 14
6 5 3 4 7 6 5 4 3 3 3 7 9 8 8 2 7 7 6 5 4 3 5 6 6 5 6 6 5 6 7 7 9 12 15 15 15 14 13 13 14 15 16 16 16 17 17 18 18 18 17 16 16 17 17 17 15 15 15 17 18 19 21 20 17 16 16 16 17 17 17 17 17 15 13 12 12 14 17 17 17 18 20 21 22 22 22 20 19 19 21 21 21 21 18 15 14
9 8 4 3 4 4 3 4 5 6 6 7 9 9 12 8 5 7 9 8 4 4 5 5 5 6 6 6 6 7 6 7 8 8 11 14 14 14 14 14 14 15 15 16 17 16 16 17 17 18 18 16 15 15 16 16 16 16 16 15 17 19 21 22 21 20 19 19 19 18 16 17 18 18 15 12 13 16 17 19 20 20 20 19 21 23 23 23 23 23 24 23 21 21 20 17 16
13 12 9 6 6 4 2 5 3 3 5 8 10 9 11 11 8 7 8 9 6 6 6 6 6 6 7 7 7 6 7 7 5 7 8 10 11 12 13 13 15 16 16 16 17 17 17 17 17 17 18 17 16 15 15 16 16 16 16 16 16 17 18 20 21 22 23 23 23 22 20 21 23 21 16 14 16 17 16 19 22 21 21 21 21 23 25 25 26 26 25 25 22 19 21 22 23
13 12 9 7 8 5 4 6 3 1 3 8 10 10 10 10 9 8 7 8 7 8 8 8 8 8 7 7 6 6 7 4 5 6 6 8 10 11 12 13 14 15 16 17 18 19 19 18 18 18 17 17 17 16 16 16 16 15 16 17 16 16 16 17 18 19 20 21 22 22 22 22 22 21 19 18 19 20 19 21 21 20 22 24 24 25 25 25 25 26 25 24 23 21 22 25 26
10 9 8 8 7 4 5 4 3 1 2 4 5 8 11 11 9 9 8 8 8 9 9 9 8 8 6 6 6 6 4 3 4 4 7 9 10 11 13 14 14 15 16 18 19 19 20 19 19 18 17 17 18 17 16 16 16 15 14 14 14 13 14 14 15 15 15 16 18 18 19 19 19 20 23 22 22 22 23 23 20 17 20 25 27 26 26 25 25 26 26 25 25 25 26 25 24
7 6 7 6 4 5 5 3 4 2 2 1 1 5 10 10 10 10 8 8 7 4 4 5 5 5 5 5 4 4 4 3 3 5 7 8 9 10 11 12 14 14 14 16 17 17 17 18 19 17 17 17 17 17 16 15 14 14 13 12 11 11 11 12 13 13 13 13 14 15 17 20 21 20 21 22 23 24 24 24 23 23 25 27 28 28 27 27 26 26 27 28 25 23 25 25 22
5 5 7 5 6 5 2 4 5 2 1 1 3 5 8 8 10 8 3 2 3 1 2 3 3 4 5 4 3 4 5 4 4 4 5 6 7 8 9 9 10 11 12 12 14 15 15 16 16 16 16 15 15 16 16 14 12 12 12 11 10 9 10 10 10 11 13 13 13 15 16 17 19 20 21 23 25 27 27 27 29 29 30 28 27 28 28 28 28 27 27 28 26 21 22 26 24
3 4 5 4 7 4 2 6 6 2 2 2 4 6 7 7 10 8 4 3 3 2 3 3 3 4 3 3 3 4 4 4 3 3 3 4 5 5 6 7 8 10 10 11 11 12 12 12 13 14 14 13 13 13 14 13 12 12 12 11 11 10 11 11 10 11 12 12 14 16 17 16 16 16 18 21 23 25 25 27 29 29 28 26 25 26 27 28 29 29 27 26 27 25 25 26 25
4 4 2 3 7 7 7 9 7 2 4 3 2 5 4 4 9 7 5 4 5 4 4 4 3 3 3 3 3 2 2 2 2 2 2 2 3 4 4 5 7 8 8 10 11 11 10 10 11 11 11 12 12 12 13 13 13 13 14 13 13 13 13 13 12 12 12 12 12 13 15 17 17 16 15 16 18 19 20 21 23 24 24 23 23 24 26 28 29 29 28 27 29 31 29 26 24
5 3 2 4 6 8 9 9 6 2 2 2 1 5 3 2 6 6 5 4 5 5 4 4 2 2 2 2 1 1 1 1 1 1 1 2 3 4 4 4 5 6 7 11 13 13 11 9 10 11 10 10 11 12 12 13 13 13 14 15 15 14 13 11 10 10 10 10 11 10 11 12 14 16 16 15 16 18 19 19 20 21 21 22 24 26 27 28 29 29 30 31 31 33 31 28 26
2 1 1 5 7 9 10 8 5 1 2 2 2 2 4 4 3 5 6 5 5 6 5 4 3 2 1 1 1 1 1 1 1 2 2 3 3 3 4 4 4 4 6 8 10 12 12 10 10 11 10 10 11 12 12 12 12 12 13 14 13 12 12 10 8 8 8 8 9 9 10 9 10 13 15 15 16 17 19 20 21 21 22 23 24 27 27 27 29 29 29 30 30 31 31 32 31
1 1 0 4 6 8 9 6 3 1 0 4 4 3 3 6 2 5 5 6 7 8 7 5 3 2 2 2 2 2 2 2 1 2 3 4 4 4 5 5 5 5 6 7 9 10 11 11 11 11 10 9 10 12 12 12 11 10 11 11 11 10 9 8 8 7 7 9 10 10 10 10 10 11 13 15 16 17 18 19 20 22 23 23 24 24 25 26 28 28 28 28 29 30 32 33 34
3 4 4 6 5 6 5 4 3 2 3 4 4 3 4 5 4 5 5 6 8 8 6 4 3 3 2 2 3 2 3 3 3 3 4 5 5 5 5 6 6 7 7 8 10 12 12 12 11 11 10 9 9 11 11 11 10 9 9 9 9 8 7 6 7 7 7 9 10 10 10 11 11 10 11 13 14 15 16 17 19 20 21 22 23 24 25 26 26 26 28 29 30 32 33 33 34
8 7 8 8 5 4 2 1 2 3 5 2 3 1 2 4 5 5 4 2 4 7 7 5 4 4 3 3 3 3 3 3 3 4 5 6 6 6 7 8 8 8 9 9 10 12 13 13 12 12 11 9 10 10 10 10 9 9 8 8 7 7 6 6 6 6 7 7 7 8 9 9 9 9 10 11 12 13 14 16 17 19 19 21 23 23 24 25 24 25 26 27 29 30 32 32 32
6 6 8 7 4 3 3 2 2 5 4 1 2 2 2 5 4 2 3 2 1 4 7 8 8 6 5 4 3 3 3 3 4 4 5 6 6 7 7 8 9 9 10 11 11 11 12 13 13 12 11 10 11 11 9 9 8 7 7 6 6 6 6 6 6 6 6 6 7 7 7 8 8 8 9 9 10 11 12 13 14 15 17 18 20 20 21 22 22 24 24 25 26 26 29 30 31
3 6 8 6 5 4 4 4 4 5 2 2 2 1 3 6 7 3 2 3 2 2 6 9 10 8 6 5 4 3 3 3 4 4 4 4 5 6 7 8 8 9 10 12 13 13 12 12 13 14 13 11 11 11 9 8 7 6 6 6 6 7 7 6 5 5 5 5 6 6 7 7 7 7 8 8 8 9 10 11 12 13 14 14 16 16 17 18 19 20 21 23 25 25 26 28 29
7 8 8 6 6 5 6 6 4 3 1 1 0 0 3 5 6 5 3 7 6 5 6 7 8 9 7 6 4 4 4 4 4 4 4 4 4 5 6 7 8 8 10 12 14 14 13 13 14 15 14 12 11 11 10 9 7 6 6 5 4 4 4 3 3 3 4 4 5 6 6 7 7 7 8 8 8 9 9 10 11 12 13 13 14 15 15 16 17 18 18 20 22 23 24 25 26
5 3 3 5 5 4 5 5 4 2 3 2 1 2 3 3 0 3 3 8 8 6 6 6 6 7 6 6 5 5 5 4 4 4 4 5 5 6 6 7 7 8 9 10 11 11 12 12 13 14 14 13 12 11 10 9 7 6 5 4 3 3 2 1 1 2 3 3 4 5 5 6 7 7 8 8 10 11 11 12 12 12 12 12 13 14 14 15 16 16 17 19 19 20 21 23 25
3 1 1 3 2 1 1 0 1 2 2 3 4 3 4 2 4 4 4 8 8 6 6 6 6 6 5 5 5 5 5 4 4 4 4 5 6 6 6 7 7 8 8 10 11 11 12 12 13 15 15 14 13 12 11 10 9 8 7 5 5 4 3 3 2 1 2 3 3 4 5 6 7 8 9 10 11 12 12 12 13 13 13 12 12 13 13 14 15 15 16 18 18 19 20 22 24
3 1 3 2 2 3 3 1 2 1 3 3 4 3 3 2 4 7 8 8 7 7 7 8 8 8 7 5 5 5 5 4 4 4 4 5 6 6 6 7 7 7 9 11 13 13 13 13 14 15 15 15 14 13 13 12 11 10 9 7 7 6 5 5 3 2 2 3 4 5 5 6 7 8 9 10 11 12 12 12 13 13 13 13 13 13 13 13 14 15 16 17 18 19 20 21 23
2 3 4 3 1 1 1 2 2 2 5 2 4 6 5 4 4 6 10 10 9 9 9 9 9 8 7 6 5 5 5 4 4 5 5 5 6 6 6 7 8 8 10 12 14 15 15 15 15 16 16 16 15 14 14 13 13 12 12 10 10 9 9 8 7 6 5 5 5 5 5 5 6 7 8 9 10 10 11 12 12 13 13 14 14 14 14 14 13 14 15 17 19 19 20 22 22
1 1 1 2 1 3 3 3 2 4 5 3 4 5 4 5 4 7 12 13 12 12 12 11 11 10 8 7 7 6 5 5 5 5 4 4 5 6 6 7 8 8 10 12 14 15 17 17 17 18 17 17 17 16 16 15 14 14 13 12 12 11 11 10 9 9 8 8 7 7 7 7 7 7 8 9 9 10 11 11 12 13 13 14 14 14 14 14 13 14 14 16 18 18 19 22 23
1 0 1 0 1 2 3 4 3 3 5 5 4 3 3 6 6 9 14 16 15 15 14 13 13 12 10 8 8 7 6 5 5 5 4 5 5 6 6 6 7 8 9 12 14 15 16 17 17 18 18 18 18 18 17 16 16 15 14 14 13 13 13 13 12 12 12 11 11 11 10 10 10 10 10 10 11 12 12 12 13 13 14 14 15 15 15 14 14 14 15 16 17 18 19 21 23
4 5 5 4 2 0 1 3 2 2 4 5 4 4 3 3 4 9 14 16 16 16 14 13 13 12 11 9 9 8 7 6 5 5 5 5 6 6 6 6 7 8 9 11 13 14 16 16 16 17 18 19 19 19 19 18 17 17 16 16 15 15 15 15 14 14 14 13 13 13 13 12 13 13 13 13 14 14 14 14 14 14 15 15 15 15 15 15 16 16 16 17 18 19 19 20 22
3 5 7 7 5 3 3 5 2 0 3 3 2 4 2 2 0 2 4 8 13 16 15 13 13 13 11 10 9 8 7 7 6 6 6 6 7 7 6 6 6 7 8 9 11 12 14 15 16 16 18 19 19 20 20 19 19 18 18 17 16 16 16 16 15 15 14 14 14 14 13 14 14 14 14 15 15 16 16 16 16 16 17 17 17 17 17 17 17 18 18 19 19 19 19 21 22
Wind_Direction
34 24 23 8 342 286 270 269 258 185 255 154 109 150 114 75 89 131 133 133 133 105 60 69 85 56 335 333 10 51 38 25 15 8 76 113 146 135 127 133 135 134 131 134 141 136 128 124 118 105 95 101 114 119 121 117 104 99 96 94 89 81 78 79 88 96 98 91 86 82 81 82 84 85 82 82 82 80 80 78 76 77 79 79 78 78 82 82 81 81 79 77 78 80 81 84 90
28 13 17 349 299 275 286 280 271 166 215 143 118 79 101 117 161 154 136 114 81 96 105 111 118 84 336 313 298 62 57 42 50 67 87 128 143 132 135 139 138 135 128 134 140 133 130 126 118 104 99 105 116 121 122 117 106 101 102 103 94 74 73 78 87 98 101 94 88 84 83 81 85 89 86 84 83 82 82 81 78 80 83 82 81 81 82 83 82 81 78 78 79 80 82 83 90
29 10 352 295 262 269 287 234 264 192 203 134 117 91 117 156 153 110 91 81 78 104 125 109 139 139 295 253 306 17 76 67 80 90 107 138 143 139 144 142 139 136 128 133 138 133 131 128 117 106 103 108 118 124 123 117 110 108 111 108 103 87 78 81 82 93 100 95 89 84 81 77 81 90 92 90 87 85 85 86 85 84 86 83 82 81 81 82 81 80 78 78 79 80 82 84 88
32 12 325 281 247 230 246 234 270 247 201 119 125 120 152 165 122 91 80 80 88 122 143 152 170 125 307 332 20 33 94 89 92 102 131 145 139 141 145 143 142 136 132 134 136 133 131 132 118 108 106 110 120 125 125 120 115 116 120 113 109 100 88 90 86 90 93 89 86 83 78 73 81 94 97 95 91 89 87 87 88 86 84 82 82 84 83 82 81 78 77 78 79 82 85 86 88
39 11 329 285 263 225 268 260 272 258 43 78 122 130 163 145 114 101 96 92 94 125 152 189 167 103 268 348 348 1 95 106 110 118 136 124 127 142 145 144 145 141 140 136 135 134 135 136 117 110 112 114 122 128 132 129 123 118 117 113 107 96 87 93 97 93 87 85 86 81 73 75 92 100 99 97 91 89 89 87 88 89 84 82 83 86 86 84 82 78 79 80 82 85 86 86 88
44 1 320 278 289 331 262 230 223 208 43 7 71 122 150 122 116 114 110 102 96 90 122 201 89 64 176 86 20 29 62 113 121 131 133 123 135 145 145 146 149 147 144 138 140 142 140 137 122 114 115 117 120 127 136 135 129 120 119 118 107 94 85 84 92 93 89 91 89 82 76 84 98 100 99 96 92 91 90 89 91 93 89 87 86 85 85 83 80 79 79 80 84 87 88 87 87
261 234 199 216 173 231 253 235 225 132 57 10 43 111 137 122 122 128 133 130 129 125 169 169 34 279 138 116 98 62 57 83 122 135 127 134 143 146 148 150 148 146 146 141 143 144 145 142 130 121 118 120 117 123 132 138 137 125 122 122 110 100 97 91 85 83 88 92 91 88 85 92 99 100 101 97 98 98 92 92 94 94 93 91 85 81 81 81 80 81 81 81 85 88 89 89 89
243 266 214 243 208 202 258 247 280 65 71 52 64 79 109 128 137 146 155 156 149 143 168 146 236 262 96 131 128 89 92 69 114 129 126 139 144 148 152 152 147 147 145 143 146 145 149 145 134 128 125 121 116 122 129 139 142 128 117 116 112 104 106 107 95 87 88 91 96 97 93 98 102 102 102 99 100 99 95 97 97 94 92 86 82 82 82 83 85 85 85 86 89 91 94 93 93
210 263 192 247 233 202 246 229 116 81 98 105 108 98 92 137 150 157 158 142 130 136 148 139 210 277 80 136 100 111 120 86 118 129 134 143 145 150 153 155 149 148 146 145 153 148 151 148 138 133 129 123 117 120 125 134 139 132 119 115 119 112 109 110 104 97 92 87 93 101 100 102 105 105 103 102 104 99 100 102 100 97 94 95 97 97 91 87 90 90 90 92 94 96 98 98 98
200 244 232 245 241 214 221 202 132 105 111 107 108 127 145 152 158 168 159 135 137 140 116 117 207 267 333 107 102 118 117 116 143 139 143 148 149 152 153 158 149 150 150 147 151 151 156 155 144 134 130 129 123 118 120 129 136 137 129 123 125 118 112 112 109 104 101 94 92 102 106 106 106 111 107 104 112 107 106 107 106 104 100 109 107 96 89 86 87 89 90 93 97 96 98 102 101
207 195 255 246 223 222 206 169 140 118 118 128 117 124 152 157 164 173 157 132 140 140 128 172 208 213 263 102 92 105 110 134 152 146 150 152 154 155 154 157 154 153 152 148 147 150 159 160 151 138 133 134 131 123 119 126 132 138 135 133 133 124 117 116 117 115 117 116 108 109 114 114 108 117 115 105 117 119 113 109 106 104 100 102 100 91 88 88 89 90 92 94 94 94 98 102 98
225 180 206 234 221 229 189 146 137 126 134 152 140 133 156 160 167 175 165 143 149 156 151 182 156 101 206 122 101 114 120 144 151 150 151 153 160 159 158 157 159 157 153 151 147 151 159 161 156 145 140 138 138 132 123 125 127 131 134 139 140 135 132 127 124 124 126 118 110 114 119 119 112 122 127 113 116 128 121 117 111 106 101 95 94 94 92 92 93 90 92 95 94 92 92 93 91
241 192 206 229 256 304 86 139 132 135 155 154 134 138 159 166 178 182 168 149 162 173 138 141 101 198 211 101 117 124 130 150 150 151 151 157 162 161 163 160 161 160 158 155 151 157 160 159 157 153 149 141 145 146 134 130 130 132 136 145 149 151 154 144 136 137 138 127 118 125 124 122 114 119 135 128 122 132 124 124 116 104 105 105 107 103 97 97 94 90 90 95 96 95 92 92 91
250 208 232 221 4 268 227 146 147 169 155 121 114 137 162 168 190 205 175 167 158 121 102 103 122 191 208 121 148 141 143 154 152 152 157 161 160 165 165 158 161 162 164 162 159 160 157 158 160 160 154 146 153 153 147 143 139 139 141 150 159 165 167 159 152 151 152 148 137 138 131 129 118 110 139 140 130 133 120 127 126 117 119 124 134 128 109 103 91 90 92 95 101 101 103 105 101
252 196 251 234 192 211 213 189 171 196 140 118 129 146 160 135 7 248 206 161 109 92 111 125 178 181 8 105 130 134 142 149 152 155 160 163 162 169 164 159 165 167 170 168 167 166 163 165 166 165 159 156 155 153 157 160 154 148 149 151 161 168 169 171 166 158 160 163 155 151 140 130 121 104 136 147 138 140 138 141 140 141 141 129 140 146 118 100 90 92 92 95 100 104 112 115 111
258 216 227 233 210 198 186 181 184 205 128 121 139 150 161 133 163 244 359 353 100 119 164 147 165 313 30 52 65 114 137 143 151 157 159 162 164 167 164 168 171 171 176 176 176 174 173 173 172 168 164 163 156 155 159 170 170 159 160 159 164 167 167 177 177 169 165 169 171 166 137 113 118 99 122 153 156 152 156 157 149 153 160 147 137 137 120 98 97 97 92 93 89 91 100 107 111
247 229 219 222 208 197 175 174 177 151 117 122 146 161 169 141 159 230 8 300 131 140 184 115 128 94 61 92 86 114 134 142 150 157 161 165 168 167 171 177 177 175 179 185 185 181 181 180 177 172 170 167 159 160 161 178 189 172 173 173 173 173 171 178 181 182 171 173 173 147 117 116 121 104 114 156 175 175 176 177 171 167 177 183 153 127 117 105 108 103 95 90 81 83 88 89 98
210 206 218 221 200 185 155 150 118 115 131 137 158 173 179 154 162 171 169 216 150 146 168 127 127 120 95 112 120 127 139 145 153 162 165 170 175 175 178 182 184 182 181 188 190 187 186 184 183 178 175 172 167 167 165 186 196 179 180 183 183 184 182 175 179 189 179 184 169 134 131 136 130 122 130 147 175 190 197 203 195 194 206 218 184 138 129 133 126 108 96 89 85 83 80 77 78
217 201 218 227 161 102 73 89 65 48 130 139 158 178 190 159 156 174 192 173 163 179 170 165 163 142 121 125 136 140 149 154 159 169 171 176 183 184 184 184 188 188 185 190 191 191 189 188 189 183 180 178 177 173 172 185 188 179 180 185 190 194 190 172 179 194 181 189 177 154 157 156 140 143 164 160 175 193 202 211 207 209 223 231 215 172 150 147 121 103 99 96 96 79 73 86 89
223 216 218 177 93 92 60 66 67 30 86 141 154 170 189 149 146 176 202 165 175 203 172 176 186 166 150 141 147 152 160 163 166 176 180 184 188 189 189 187 189 190 189 191 191 193 192 192 192 189 187 183 184 182 181 185 185 184 184 188 190 196 200 180 187 199 187 195 188 170 178 174 154 168 198 170 171 194 205 211 212 225 248 240 223 210 199 165 117 116 112 98 95 79 83 164 176
180 224 246 92 96 113 75 56 70 34 16 143 141 160 184 148 156 188 197 177 184 208 179 176 193 175 160 149 156 163 167 168 174 184 186 190 193 194 194 191 190 188 189 191 193 195 195 195 193 192 190 187 189 189 190 191 189 191 190 195 193 194 204 199 199 202 200 204 190 175 196 192 163 175 202 160 156 183 206 214 212 210 238 233 190 165 227 226 172 200 135 88 105 221 220 215 211
173 157 20 65 67 91 88 61 68 44 353 140 138 161 166 138 181 204 214 213 146 104 92 91 53 143 154 152 157 166 173 174 179 188 192 195 196 197 197 192 188 187 188 191 197 198 197 198 195 193 192 192 192 192 195 195 195 196 196 199 199 199 203 205 205 203 210 212 197 185 200 196 170 177 188 170 171 184 194 199 196 185 195 215 179 168 217 230 206 230 257 216 223 237 233 233 236
201 153 80 60 25 53 92 80 71 40 147 151 142 137 136 166 195 199 234 250 67 55 48 58 44 92 144 152 157 167 178 181 185 191 194 196 197 199 199 193 189 187 189 194 200 200 199 200 198 196 195 195 194 195 197 197 199 200 201 202 203 204 203 208 210 205 209 214 208 199 200 195 183 188 192 190 188 189 193 193 196 195 198 212 205 195 221 230 214 222 232 229 233 237 243 246 249
227 152 128 89 46 60 75 88 112 131 127 121 108 121 168 200 193 132 242 241 96 81 46 54 64 108 147 155 164 175 182 188 192 194 196 199 199 200 201 200 196 191 193 199 201 201 201 201 201 200 198 198 197 197 200 201 204 204 205 207 207 209 207 210 214 211 211 215 216 208 201 200 197 196 199 202 198 196 201 199 197 202 203 210 212 209 227 233 219 223 228 237 244 247 257 260 260
221 140 127 117 81 86 87 106 132 139 109 88 132 174 170 199 347 275 236 208 112 103 65 68 89 134 165 169 174 179 184 191 194 195 198 201 201 202 204 206 204 200 201 202 202 202 202 202 203 204 202 200 200 200 204 206 207 208 209 210 211 212 212 215 217 218 219 220 221 217 209 204 206 205 204 206 206 204 206 206 203 205 208 210 217 215 223 230 222 229 232 240 246 243 257 262 257
182 132 126 129 112 106 115 121 129 144 131 141 179 176 128 72 326 253 217 137 100 119 132 139 160 172 182 181 181 183 185 190 194 196 198 200 202 203 204 206 208 205 204 204 204 204 203 204 205 206 206 204 204 204 206 209 210 211 211 213 216 215 216 219 220 221 224 225 226 227 220 211 210 213 212 209 210 211 211 218 216 212 214 214 222 222 222 226 222 229 232 235 242 241 248 252 254
122 122 119 121 117 119 141 128 128 138 122 168 203 171 140 113 245 240 143 94 102 167 163 163 196 206 199 187 186 187 189 191 192 195 196 199 202 204 203 204 209 208 204 204 204 205 204 205 207 208 209 207 207 208 208 211 212 214 214 216 218 219 220 220 223 225 226 227 228 237 231 221 218 217 219 215 213 216 216 223 223 219 219 219 229 231 230 235 228 228 236 235 234 239 244 246 255
126 123 113 115 121 121 137 137 142 162 128 198 251 176 156 141 222 215 111 98 120 171 172 168 195 212 204 192 187 187 193 193 191 196 198 198 200 202 202 202 206 207 205 204 203 204 204 206 208 209 210 210 210 210 211 213 214 217 217 217 220 222 222 220 224 226 227 228 228 233 234 228 225 222 223 219 218 220 219 224 222 222 223 223 239 244 246 255 251 244 252 252 244 244 243 243 256
142 140 129 132 149 143 148 139 154 220 147 156 263 228 209 195 207 147 117 131 117 163 186 171 192 201 200 195 187 189 192 189 191 201 202 201 201 201 202 201 202 204 204 204 201 202 204 205 208 209 210 211 213 213 213 215 217 218 219 218 220 221 222 223 224 225 228 230 228 228 229 229 228 226 227 228 230 227 224 227 223 229 230 225 243 255 259 265 264 258 262 265 260 257 253 251 258
156 170 161 149 179 173 156 143 168 205 129 161 235 259 223 189 179 119 118 156 148 205 209 183 192 187 196 197 194 198 190 191 197 203 204 203 203 202 202 199 198 200 200 200 200 201 203 204 206 209 211 211 214 215 215 217 218 218 221 222 222 222 223 226 226 225 226 228 229 230 228 227 229 232 232 233 238 233 229 231 227 233 234 229 244 259 266 267 265 262 263 267 266 263 261 257 257
164 171 183 175 200 169 140 144 181 187 145 205 226 260 248 144 137 111 122 173 176 213 205 189 190 180 194 193 198 205 195 201 204 205 205 203 204 202 201 198 197 198 196 197 199 201 201 201 202 207 211 211 213 216 216 219 219 219 223 224 225 225 224 227 229 228 227 228 227 229 230 226 227 234 234 235 241 237 231 232 234 236 233 237 249 259 263 261 260 259 257 259 260 261 262 257 251
174 170 194 197 205 149 128 141 188 195 161 194 215 249 241 125 120 116 129 173 187 215 209 195 197 192 196 192 201 208 202 207 208 209 207 204 205 202 200 199 197 197 198 197 197 199 201 200 200 203 208 210 213 217 218 219 221 223 225 226 227 228 229 229 231 231 231 231 226 226 230 226 224 229 231 234 239 239 234 232 237 236 234 244 255 260 262 258 255 257 257 256 255 256 257 253 247
190 204 199 190 199 170 141 145 179 221 156 193 219 259 258 114 116 135 143 159 169 208 223 214 212 206 204 205 203 205 206 204 205 209 207 204 205 202 201 200 199 199 200 199 197 198 199 200 201 201 204 207 212 217 219 221 222 225 228 231 232 232 235 234 235 235 234 235 231 233 241 244 245 247 247 242 239 239 241 242 242 238 244 255 261 262 263 261 256 257 258 260 262 258 252 250 248
183 213 214 181 203 193 165 151 157 195 203 210 213 243 262 167 122 144 160 168 163 194 224 219 215 211 209 210 207 210 210 205 208 209 205 203 202 201 201 199 200 201 202 203 201 199 200 201 202 204 205 206 210 214 219 222 223 226 229 233 235 236 238 238 240 239 236 237 236 241 248 251 256 262 261 251 247 255 256 257 254 250 258 266 266 262 261 261 257 255 257 260 263 261 253 249 249
177 190 198 175 208 228 195 144 146 185 206 225 211 225 252 243 177 166 169 176 198 228 234 234 227 226 220 213 217 218 214 218 217 198 191 196 198 200 202 202 202 202 204 206 204 203 202 203 204 205 206 206 208 211 216 220 222 226 229 232 235 238 239 240 242 242 242 243 244 248 251 256 263 265 262 254 257 267 263 259 257 254 260 264 263 261 259 258 256 256 260 261 261 259 254 248 245
185 187 198 188 188 214 139 103 104 196 200 217 223 230 247 247 230 213 185 176 208 245 246 248 242 242 238 225 224 218 221 225 184 140 155 176 188 193 196 201 203 205 207 206 206 206 205 204 204 206 207 204 205 209 212 216 219 223 226 230 233 236 239 241 244 245 246 246 248 252 257 264 263 255 256 263 263 265 262 263 263 259 259 261 258 255 254 254 256 258 261 261 258 253 254 255 252
192 189 199 196 188 186 112 97 87 316 234 217 225 242 252 253 246 242 219 183 202 237 239 240 235 237 238 229 225 218 221 203 122 132 169 178 186 189 191 196 199 204 207 206 206 207 207 205 204 205 204 201 202 206 209 212 215 218 223 227 231 234 236 238 242 245 246 248 250 252 254 260 257 251 260 267 264 263 260 261 262 256 256 258 254 251 254 257 258 260 259 259 257 249 251 260 262
191 187 192 198 199 165 96 96 108 73 269 214 214 253 257 257 254 248 237 212 217 233 233 234 232 232 233 227 228 227 220 164 138 182 193 186 189 190 196 198 197 200 204 205 206 206 207 206 206 206 201 200 202 203 206 210 213 217 222 226 230 234 234 235 239 243 245 250 253 250 251 258 260 262 263 257 255 258 257 256 252 245 250 257 255 253 257 260 260 258 255 253 254 252 252 256 262
189 191 197 203 177 130 102 109 119 116 251 205 146 271 262 259 257 246 231 222 226 236 241 246 247 243 240 237 243 246 241 220 207 205 190 187 186 185 197 202 200 201 202 203 205 204 204 205 207 205 201 202 202 202 204 209 214 219 224 228 229 232 236 239 242 244 245 247 250 249 253 259 259 259 259 257 257 257 257 256 252 250 255 261 260 257 256 257 256 256 255 253 252 254 256 255 254
193 189 197 195 152 154 184 156 140 129 226 316 335 288 271 264 255 241 196 187 226 254 262 252 247 244 250 263 275 270 262 260 242 215 193 187 183 185 196 198 197 198 198 198 198 199 200 203 204 202 201 201 200 201 202 207 215 220 225 229 230 235 241 243 244 244 244 244 247 249 253 260 259 256 258 261 260 257 256 257 254 254 257 261 263 261 257 253 254 257 257 255 251 246 251 255 252
191 200 203 180 155 151 49 130 141 136 179 257 303 279 268 244 235 225 140 132 194 190 224 218 203 216 239 263 255 253 262 274 261 228 199 188 185 185 186 191 196 196 197 195 192 193 195 197 197 196 198 197 197 198 197 201 210 216 220 222 226 234 238 239 242 244 244 245 250 252 252 255 257 257 260 262 260 258 258 257 256 254 255 258 261 258 253 250 253 256 256 256 253 247 247 253 254
180 210 213 154 161 136 98 130 146 180 199 191 259 261 262 208 218 215 154 163 177 162 203 203 177 189 206 231 229 233 239 238 247 235 218 201 183 166 161 178 193 190 193 195 192 190 188 188 188 187 190 193 194 193 191 192 200 209 212 214 220 225 231 235 238 244 247 249 254 258 258 256 254 257 261 262 261 262 264 264 260 257 256 257 257 252 248 250 253 255 259 261 259 255 252 251 254
187 186 87 117 151 137 133 155 170 212 196 122 221 250 255 184 203 193 164 183 181 169 194 189 174 183 185 208 205 229 213 154 166 185 168 154 147 148 143 149 167 172 185 196 196 190 182 175 175 177 179 183 185 185 186 188 193 204 209 216 221 224 230 236 241 246 250 254 257 259 264 262 256 257 259 259 261 264 267 267 264 262 260 261 263 260 259 263 265 264 264 264 263 261 255 249 252
180 107 118 148 155 152 154 171 193 228 95 131 198 243 267 259 206 150 159 194 197 195 195 175 164 167 152 144 141 128 89 86 115 127 115 112 110 114 119 120 132 148 169 183 187 187 181 170 162 165 165 168 175 178 181 185 189 197 205 213 220 223 231 238 244 250 255 259 259 260 265 266 261 259 261 261 261 262 263 263 263 265 267 267 265 263 264 267 267 264 260 259 260 258 252 250 253
81 350 242 141 148 156 164 180 189 50 224 204 177 154 249 254 196 128 164 209 215 207 194 172 150 130 118 106 95 90 91 76 69 99 94 90 89 88 98 104 109 122 135 143 152 162 165 162 156 154 153 157 168 172 176 181 184 189 197 205 213 221 230 239 246 254 262 259 255 259 263 266 267 265 264 262 261 262 263 263 264 266 269 268 265 265 268 269 266 263 260 259 260 258 254 253 254
147 174 109 94 104 121 150 189 158 137 244 225 161 164 251 258 214 165 174 220 222 203 180 157 137 120 108 101 94 90 97 84 66 78 80 81 86 89 94 99 99 106 116 124 134 140 142 143 142 140 140 143 152 160 166 173 177 182 190 198 206 214 222 235 247 254 260 257 257 263 266 268 269 267 266 265 263 264 264 263 264 266 267 268 269 271 274 275 274 270 265 263 263 260 256 253 252
146 158 118 104 106 104 115 173 152 198 231 210 106 105 278 269 233 183 167 230 217 182 164 151 142 133 124 110 105 100 96 94 88 85 86 87 89 95 98 98 97 98 104 107 113 126 131 132 134 135 134 131 138 148 156 163 171 176 183 193 201 211 221 233 247 255 261 265 268 274 276 277 272 267 270 272 269 267 266 266 266 267 268 268 270 272 272 274 276 274 270 266 263 260 258 255 253
152 155 135 125 119 137 162 155 197 229 228 146 56 6 257 241 234 162 95 44 141 174 169 160 154 146 137 127 114 102 92 96 100 94 97 99 95 97 96 94 96 95 97 101 103 111 119 122 125 126 126 129 136 141 146 153 162 168 174 182 190 203 217 229 245 254 265 274 276 279 281 282 280 275 275 278 279 277 276 275 273 271 272 271 271 273 273 273 275 276 278 276 272 268 263 258 254
187 165 157 159 152 169 197 183 199 226 215 83 61 2 251 245 245 240 147 139 143 154 157 154 151 146 139 133 121 105 95 92 99 94 92 96 89 91 93 90 91 88 91 102 109 110 110 114 119 120 121 127 133 138 144 149 154 162 169 175 182 196 204 216 237 248 260 269 271 277 279 280 282 279 277 281 286 289 288 285 282 279 277 277 277 276 275 275 276 277 278 277 277 275 269 262 256
191 177 175 187 171 174 202 191 198 222 136 69 327 251 256 254 259 272 194 148 128 103 117 130 138 140 134 129 121 111 103 85 88 88 81 84 79 80 84 84 84 84 90 102 109 112 112 116 124 125 124 128 131 133 139 142 145 151 161 169 174 185 198 215 242 251 265 270 270 276 280 283 285 284 285 287 285 284 282 280 281 281 280 280 279 279 278 277 277 278 277 276 277 277 276 273 267
191 194 196 206 196 195 206 195 194 180 113 111 185 208 239 236 128 9 69 117 110 97 102 103 114 121 120 122 123 121 114 93 85 85 79 77 75 77 79 79 82 83 88 95 100 105 108 111 119 122 121 126 129 129 130 132 134 136 140 147 146 150 163 160 235 279 287 287 286 289 290 290 289 290 290 286 284 285 284 281 280 280 280 280 281 281 281 279 278 279 277 276 277 278 278 277 276
184 353 239 227 242 131 129 96 101 107 105 157 184 226 267 257 118 105 104 114 112 111 120 128 130 127 132 137 137 132 120 107 98 92 88 80 74 76 78 77 79 81 87 96 100 101 103 107 114 118 118 121 123 125 127 127 128 128 128 130 131 132 134 127 126 318 321 318 318 316 313 307 302 301 299 297 300 304 305 301 296 293 289 284 282 282 283 283 282 280 279 278 277 277 277 276 275
161 159 189 205 7 68 116 131 78 55 262 187 167 230 260 230 168 142 143 143 135 137 149 155 152 150 157 153 143 138 123 113 107 98 96 88 79 74 71 73 75 77 87 99 106 107 106 107 111 114 116 117 119 120 122 122 120 119 117 114 113 108 105 104 97 70 38 17 9 0 347 339 328 321 317 318 324 328 327 324 319 315 310 301 293 288 285 286 285 283 282 281 281 280 280 278 277
138 169 172 145 35 20 170 215 137 196 243 194 162 220 223 210 200 150 156 168 163 166 171 167 163 166 170 161 148 138 122 113 106 100 97 89 83 76 69 70 73 79 90 100 107 110 110 111 113 114 114 114 115 115 117 117 115 114 110 106 105 102 100 97 91 84 74 61 49 33 17 7 353 342 340 339 342 344 341 339 335 330 326 320 313 304 298 294 289 287 284 282 282 282 281 280 279
21 225 184 126 202 216 194 212 203 200 229 229 187 208 229 229 202 161 176 186 180 177 178 175 174 177 174 163 152 141 131 132 126 118 111 95 91 84 77 78 77 80 90 98 105 108 109 112 113 114 114 113 113 112 111 112 111 109 107 105 105 101 99 96 92 89 81 72 63 52 43 33 22 11 5 360 359 359 356 352 348 343 340 335 330 324 316 308 298 292 289 287 285 284 282 281 280
61 234 197 67 265 231 194 206 226 216 223 231 199 182 226 230 200 179 187 192 185 179 179 181 180 179 176 164 157 156 155 155 144 134 126 109 102 92 86 89 86 87 94 99 105 106 107 110 110 112 113 114 115 114 112 111 109 108 105 104 104 101 99 94 89 85 79 71 65 58 51 45 39 31 25 20 18 15 10 6 1 357 353 348 344 338 331 323 314 304 297 293 292 289 285 284 283
175 180 178 184 190 273 240 222 223 238 232 230 225 225 223 201 195 195 194 194 189 180 177 179 178 177 172 162 163 166 162 159 149 141 138 126 118 107 96 95 93 94 95 97 104 107 108 109 109 112 115 115 115 115 114 111 108 107 104 100 98 95 93 89 83 79 73 66 61 54 49 44 40 35 30 27 25 22 17 14 10 6 1 356 352 347 340 330 321 313 306 299 296 294 291 289 288
197 196 190 193 179 155 204 211 176 244 258 243 245 259 248 112 63 233 194 195 191 179 172 173 174 173 168 163 167 167 160 160 155 149 144 135 130 123 115 109 100 96 90 92 101 104 105 108 108 111 113 114 114 114 112 110 107 104 100 96 93 89 86 82 77 71 66 60 55 49 43 40 36 32 28 26 23 20 17 15 11 7 5 0 355 350 345 338 330 323 318 312 307 303 297 295 293